{"data":{"norad_id":62036,"intl_designator":"2024-216E","name":"STARLINK-32225","alt_names":[],"object_type":"PAYLOAD","status":"ACTIVE","operator":null,"country":"US","launch_date":"2024-11-21","launch_site_code":"AFETR","launch_vehicle":null,"mission":null,"orbit_class":"UNKNOWN","rcs_meters":null,"size_class":null,"mass_kg":null,"dimensions":null,"purposes":["comms"],"wikipedia_slug":null,"has_3d_model":false,"image_url":null,"decayed_at":null,"tle_current":{"epoch":"2026-09-20T06:42:12.015936Z","epoch_age_seconds":204610,"freshness":"STALE","line1":"1 62036U 24216E   26263.27930574  .00009187  00000+0  34283-3 0  9995","line2":"2 62036  43.0000 237.5546 0001410 266.6847  93.3844 15.27590396103702","mean_motion":15.27590396,"eccentricity":0.000141,"inclination_deg":43,"raan_deg":237.5546,"arg_perigee_deg":266.6847,"mean_anomaly_deg":93.3844,"bstar":0.00034283,"rev_number":10370,"period_min":94.266107182308,"perigee_km":482.05054400193,"apogee_km":483.98538970258,"semimajor_km":6861.1549668523,"source":"CELESTRAK","updated_at":"2026-09-22T09:00:49.487216Z"}}}